Time,TemperatureF,DewpointF,PressureIn,WindDirection,WindDirectionDegrees,WindSpeedMPH,WindSpeedGustMPH,Humidity,HourlyPrecipIn,Conditions,Clouds,dailyrainin,SoftwareType,DateUTC
2013-04-21 00:01:00,44.4,23.3,30.23,SW,234,1.0,7.0,43,0.00,,,0.00,WeatherCatV1.15B25,2013-04-21 04:01:00,
2013-04-21 00:06:00,44.2,23.1,30.24,SSW,208,1.0,4.0,43,0.00,,,0.00,WeatherCatV1.15B25,2013-04-21 04:06:00,
2013-04-21 00:11:00,44.1,23.0,30.24,SW,224,0.0,3.0,43,0.00,,,0.00,WeatherCatV1.15B25,2013-04-21 04:11:00,
2013-04-21 00:16:00,43.9,22.9,30.24,SW,214,1.0,6.0,43,0.00,,,0.00,WeatherCatV1.15B25,2013-04-21 04:16:00,
2013-04-21 00:21:00,43.8,23.3,30.25,SW,228,0.0,6.0,44,0.00,,,0.00,WeatherCatV1.15B25,2013-04-21 04:21:00,
2013-04-21 00:26:00,43.7,22.7,30.25,SSE,165,2.0,11.0,43,0.00,,,0.00,WeatherCatV1.15B25,2013-04-21 04:26:00,
2013-04-21 00:31:00,43.6,23.1,30.25,SSW,211,2.0,6.0,44,0.00,,,0.00,WeatherCatV1.15B25,2013-04-21 04:31:00,
2013-04-21 00:36:00,43.3,22.3,30.26,North,352,1.0,7.0,43,0.00,,,0.00,WeatherCatV1.15B25,2013-04-21 04:36:00,
2013-04-21 00:41:00,43.1,22.1,30.26,North,0,3.0,4.0,43,0.00,,,0.00,WeatherCatV1.15B25,2013-04-21 04:41:00,
2013-04-21 00:46:00,42.9,22.0,30.26,NE,47,0.0,9.0,43,0.00,,,0.00,WeatherCatV1.15B25,2013-04-21 04:46:00,
2013-04-21 00:51:00,42.6,21.7,30.26,North,351,1.0,3.0,43,0.00,,,0.00,WeatherCatV1.15B25,2013-04-21 04:51:00,
2013-04-21 00:56:00,42.3,21.4,30.26,NW,323,1.0,4.0,43,0.00,,,0.00,WeatherCatV1.15B25,2013-04-21 04:56:00,
2013-04-21 01:01:00,42.1,21.8,30.26,SW,225,0.0,2.0,44,0.00,,,0.00,WeatherCatV1.15B25,2013-04-21 05:01:00,
2013-04-21 01:06:00,41.8,21.5,30.27,SW,218,1.0,3.0,44,0.00,,,0.00,WeatherCatV1.15B25,2013-04-21 05:06:00,
2013-04-21 01:11:00,41.5,21.8,30.27,North,351,1.0,1.0,45,0.00,,,0.00,WeatherCatV1.15B25,2013-04-21 05:11:00,
2013-04-21 01:16:00,41.3,21.6,30.28,SSW,212,3.0,3.0,45,0.00,,,0.00,WeatherCatV1.15B25,2013-04-21 05:16:00,
2013-04-21 01:21:00,41.2,22.0,30.28,NNE,15,0.0,4.0,46,0.00,,,0.00,WeatherCatV1.15B25,2013-04-21 05:21:00,
2013-04-21 01:26:00,41.0,21.8,30.29,NNE,18,2.0,2.0,46,0.00,,,0.00,WeatherCatV1.15B25,2013-04-21 05:26:00,
2013-04-21 01:31:00,40.7,22.1,30.29,SW,221,2.0,6.0,47,0.00,,,0.00,WeatherCatV1.15B25,2013-04-21 05:31:00,
2013-04-21 01:36:00,40.5,21.9,30.29,SW,217,2.0,5.0,47,0.00,,,0.00,WeatherCatV1.15B25,2013-04-21 05:36:00,
2013-04-21 01:41:00,40.3,22.2,30.29,NW,308,2.0,2.0,48,0.00,,,0.00,WeatherCatV1.15B25,2013-04-21 05:41:00,
2013-04-21 01:46:00,40.0,21.9,30.29,NNW,332,2.0,4.0,48,0.00,,,0.00,WeatherCatV1.15B25,2013-04-21 05:46:00,
2013-04-21 01:51:00,39.8,21.7,30.30,WSW,242,5.0,7.0,48,0.00,,,0.00,WeatherCatV1.15B25,2013-04-21 05:51:00,
2013-04-21 01:56:00,39.7,21.6,30.30,NW,323,1.0,4.0,48,0.00,,,0.00,WeatherCatV1.15B25,2013-04-21 05:56:00,
2013-04-21 02:01:00,39.6,21.5,30.30,SW,219,2.0,6.0,48,0.00,,,0.00,WeatherCatV1.15B25,2013-04-21 06:01:00,
2013-04-21 02:06:00,39.5,21.5,30.30,NE,36,1.0,8.0,48,0.00,,,0.00,WeatherCatV1.15B25,2013-04-21 06:06:00,
2013-04-21 02:11:00,39.3,21.3,30.31,SW,222,3.0,6.0,48,0.00,,,0.00,WeatherCatV1.15B25,2013-04-21 06:11:00,
2013-04-21 02:16:00,39.1,21.1,30.31,NNW,340,0.0,5.0,48,0.00,,,0.00,WeatherCatV1.15B25,2013-04-21 06:16:00,
2013-04-21 02:21:00,38.9,20.4,30.31,WSW,239,0.0,4.0,47,0.00,,,0.00,WeatherCatV1.15B25,2013-04-21 06:21:00,
2013-04-21 02:26:00,38.7,20.2,30.32,NW,325,1.0,3.0,47,0.00,,,0.00,WeatherCatV1.15B25,2013-04-21 06:26:00,
2013-04-21 02:31:00,38.5,20.5,30.32,SSW,210,0.0,1.0,48,0.00,,,0.00,WeatherCatV1.15B25,2013-04-21 06:31:00,
2013-04-21 02:36:00,38.3,20.4,30.32,WNW,294,2.0,2.0,48,0.00,,,0.00,WeatherCatV1.15B25,2013-04-21 06:36:00,
2013-04-21 02:41:00,38.1,20.6,30.32,South,186,0.0,0.0,49,0.00,,,0.00,WeatherCatV1.15B25,2013-04-21 06:41:00,
2013-04-21 02:46:00,38.0,20.1,30.33,SSW,202,0.0,1.0,48,0.00,,,0.00,WeatherCatV1.15B25,2013-04-21 06:46:00,
2013-04-21 02:51:00,37.9,20.0,30.33,SSW,193,1.0,1.0,48,0.00,,,0.00,WeatherCatV1.15B25,2013-04-21 06:51:00,
2013-04-21 02:56:00,37.7,20.3,30.33,SSW,211,0.0,2.0,49,0.00,,,0.00,WeatherCatV1.15B25,2013-04-21 06:56:00,
2013-04-21 03:01:00,37.5,20.1,30.34,North,11,0.0,1.0,49,0.00,,,0.00,WeatherCatV1.15B25,2013-04-21 07:01:00,
2013-04-21 03:06:00,37.4,20.0,30.34,SSW,208,0.0,1.0,49,0.00,,,0.00,WeatherCatV1.15B25,2013-04-21 07:06:00,
2013-04-21 03:11:00,37.3,19.9,30.34,SW,226,0.0,4.0,49,0.00,,,0.00,WeatherCatV1.15B25,2013-04-21 07:11:00,
2013-04-21 03:16:00,37.1,20.2,30.34,North,5,0.0,1.0,50,0.00,,,0.00,WeatherCatV1.15B25,2013-04-21 07:16:00,
2013-04-21 03:21:00,37.0,20.1,30.34,North,359,1.0,3.0,50,0.00,,,0.00,WeatherCatV1.15B25,2013-04-21 07:21:00,
2013-04-21 03:26:00,36.8,19.9,30.35,SE,127,0.0,4.0,50,0.00,,,0.00,WeatherCatV1.15B25,2013-04-21 07:26:00,
2013-04-21 03:31:00,36.8,19.9,30.35,NW,318,1.0,2.0,50,0.00,,,0.00,WeatherCatV1.15B25,2013-04-21 07:31:00,
2013-04-21 03:36:00,36.6,20.2,30.35,SW,217,0.0,0.0,51,0.00,,,0.00,WeatherCatV1.15B25,2013-04-21 07:36:00,
2013-04-21 03:41:00,36.4,20.5,30.35,SSE,156,1.0,1.0,52,0.00,,,0.00,WeatherCatV1.15B25,2013-04-21 07:41:00,
2013-04-21 03:46:00,36.3,20.4,30.35,NW,304,0.0,2.0,52,0.00,,,0.00,WeatherCatV1.15B25,2013-04-21 07:46:00,
2013-04-21 03:51:00,36.2,20.7,30.35,SW,217,0.0,1.0,53,0.00,,,0.00,WeatherCatV1.15B25,2013-04-21 07:51:00,
2013-04-21 03:56:00,36.0,20.5,30.35,SSE,160,0.0,0.0,53,0.00,,,0.00,WeatherCatV1.15B25,2013-04-21 07:56:00,
2013-04-21 04:01:00,35.8,20.4,30.36,NNE,27,0.0,1.0,53,0.00,,,0.00,WeatherCatV1.15B25,2013-04-21 08:01:00,
2013-04-21 04:06:00,35.7,20.3,30.36,West,269,0.0,1.0,53,0.00,,,0.00,WeatherCatV1.15B25,2013-04-21 08:06:00,
2013-04-21 04:11:00,35.6,20.6,30.36,WSW,257,0.0,1.0,54,0.00,,,0.00,WeatherCatV1.15B25,2013-04-21 08:11:00,
2013-04-21 04:16:00,35.4,20.4,30.36,NNW,333,0.0,1.0,54,0.00,,,0.00,WeatherCatV1.15B25,2013-04-21 08:16:00,
2013-04-21 04:21:00,35.3,20.8,30.36,NNW,333,0.0,1.0,55,0.00,,,0.00,WeatherCatV1.15B25,2013-04-21 08:21:00,
2013-04-21 04:26:00,35.1,20.6,30.36,NW,323,0.0,3.0,55,0.00,,,0.00,WeatherCatV1.15B25,2013-04-21 08:26:00,
2013-04-21 04:31:00,35.2,20.2,30.36,SSW,201,0.0,0.0,54,0.00,,,0.00,WeatherCatV1.15B25,2013-04-21 08:31:00,
2013-04-21 04:36:00,35.1,20.1,30.37,NNW,348,0.0,1.0,54,0.00,,,0.00,WeatherCatV1.15B25,2013-04-21 08:36:00,
2013-04-21 04:41:00,35.0,20.5,30.37,SW,227,0.0,1.0,55,0.00,,,0.00,WeatherCatV1.15B25,2013-04-21 08:41:00,
2013-04-21 04:46:00,34.9,20.4,30.37,NE,40,0.0,0.0,55,0.00,,,0.00,WeatherCatV1.15B25,2013-04-21 08:46:00,
2013-04-21 04:51:00,35.0,20.5,30.37,SW,232,1.0,2.0,55,0.00,,,0.00,WeatherCatV1.15B25,2013-04-21 08:51:00,
2013-04-21 04:56:00,35.0,20.1,30.37,SW,224,0.0,1.0,54,0.00,,,0.00,WeatherCatV1.15B25,2013-04-21 08:56:00,
2013-04-21 05:01:00,34.9,20.4,30.38,North,5,0.0,1.0,55,0.00,,,0.00,WeatherCatV1.15B25,2013-04-21 09:01:00,
2013-04-21 05:06:00,34.8,20.3,30.38,SW,218,1.0,1.0,55,0.00,,,0.00,WeatherCatV1.15B25,2013-04-21 09:06:00,
2013-04-21 05:11:00,34.8,20.3,30.38,SW,219,0.0,1.0,55,0.00,,,0.00,WeatherCatV1.15B25,2013-04-21 09:11:00,
2013-04-21 05:16:00,34.7,20.2,30.39,NE,37,0.0,1.0,55,0.00,,,0.00,WeatherCatV1.15B25,2013-04-21 09:16:00,
2013-04-21 05:21:00,34.6,20.5,30.40,SE,133,0.0,1.0,56,0.00,,,0.00,WeatherCatV1.15B25,2013-04-21 09:21:00,
2013-04-21 05:26:00,34.4,19.9,30.40,SSW,212,2.0,3.0,55,0.00,,,0.00,WeatherCatV1.15B25,2013-04-21 09:26:00,
2013-04-21 05:31:00,34.2,20.2,30.40,SW,221,0.0,1.0,56,0.00,,,0.00,WeatherCatV1.15B25,2013-04-21 09:31:00,
2013-04-21 05:36:00,34.1,20.9,30.41,SW,224,0.0,0.0,58,0.00,,,0.00,WeatherCatV1.15B25,2013-04-21 09:36:00,
2013-04-21 05:41:00,34.1,20.5,30.41,NNW,342,0.0,1.0,57,0.00,,,0.00,WeatherCatV1.15B25,2013-04-21 09:41:00,
2013-04-21 05:46:00,34.1,20.5,30.42,ESE,105,0.0,1.0,57,0.00,,,0.00,WeatherCatV1.15B25,2013-04-21 09:46:00,
2013-04-21 05:51:00,34.1,20.5,30.42,SW,219,0.0,0.0,57,0.00,,,0.00,WeatherCatV1.15B25,2013-04-21 09:51:00,
2013-04-21 05:56:00,33.8,20.6,30.42,SW,219,0.0,0.0,58,0.00,,,0.00,WeatherCatV1.15B25,2013-04-21 09:56:00,
2013-04-21 06:01:00,33.6,20.8,30.42,SW,219,0.0,1.0,59,0.00,,,0.00,WeatherCatV1.15B25,2013-04-21 10:01:00,
2013-04-21 06:06:00,33.5,20.7,30.43,SW,219,0.0,1.0,59,0.00,,,0.00,WeatherCatV1.15B25,2013-04-21 10:06:00,
2013-04-21 06:11:00,33.5,21.5,30.43,SW,219,0.0,0.0,61,0.00,,,0.00,WeatherCatV1.15B25,2013-04-21 10:11:00,
2013-04-21 06:16:00,33.4,21.4,30.44,SW,219,0.0,0.0,61,0.00,,,0.00,WeatherCatV1.15B25,2013-04-21 10:16:00,
2013-04-21 06:21:00,33.4,21.0,30.44,SW,219,0.0,0.0,60,0.00,,,0.00,WeatherCatV1.15B25,2013-04-21 10:21:00,
2013-04-21 06:26:00,33.5,21.1,30.45,SW,219,0.0,1.0,60,0.00,,,0.00,WeatherCatV1.15B25,2013-04-21 10:26:00,
2013-04-21 06:31:00,33.8,21.4,30.45,SW,219,0.0,0.0,60,0.00,,,0.00,WeatherCatV1.15B25,2013-04-21 10:31:00,
2013-04-21 06:36:00,34.0,21.2,30.45,SW,219,2.0,2.0,59,0.00,,,0.00,WeatherCatV1.15B25,2013-04-21 10:36:00,
2013-04-21 06:41:00,34.5,21.7,30.45,SW,232,1.0,2.0,59,0.00,,,0.00,WeatherCatV1.15B25,2013-04-21 10:41:00,
2013-04-21 06:46:00,34.8,21.5,30.46,NNE,21,0.0,1.0,58,0.00,,,0.00,WeatherCatV1.15B25,2013-04-21 10:46:00,
2013-04-21 06:51:00,35.0,21.7,30.47,NNE,22,0.0,0.0,58,0.00,,,0.00,WeatherCatV1.15B25,2013-04-21 10:51:00,
2013-04-21 06:56:00,35.4,21.7,30.47,NE,39,0.0,4.0,57,0.00,,,0.00,WeatherCatV1.15B25,2013-04-21 10:56:00,
2013-04-21 07:01:00,35.7,22.0,30.47,NNW,335,0.0,1.0,57,0.00,,,0.00,WeatherCatV1.15B25,2013-04-21 11:01:00,
2013-04-21 07:06:00,36.0,21.8,30.47,SE,143,1.0,3.0,56,0.00,,,0.00,WeatherCatV1.15B25,2013-04-21 11:06:00,
2013-04-21 07:11:00,36.3,21.7,30.48,WSW,239,2.0,2.0,55,0.00,,,0.00,WeatherCatV1.15B25,2013-04-21 11:11:00,
2013-04-21 07:16:00,36.6,21.5,30.48,North,5,2.0,4.0,54,0.00,,,0.00,WeatherCatV1.15B25,2013-04-21 11:16:00,
2013-04-21 07:21:00,36.9,21.4,30.48,SSW,207,0.0,2.0,53,0.00,,,0.00,WeatherCatV1.15B25,2013-04-21 11:21:00,
2013-04-21 07:26:00,37.3,21.8,30.49,NNE,25,3.0,3.0,53,0.00,,,0.00,WeatherCatV1.15B25,2013-04-21 11:26:00,
2013-04-21 07:31:00,37.5,21.5,30.49,NNE,23,1.0,6.0,52,0.00,,,0.00,WeatherCatV1.15B25,2013-04-21 11:31:00,
2013-04-21 07:36:00,37.7,21.7,30.49,NNW,335,0.0,2.0,52,0.00,,,0.00,WeatherCatV1.15B25,2013-04-21 11:36:00,
2013-04-21 07:41:00,38.1,21.6,30.49,WSW,238,0.0,2.0,51,0.00,,,0.00,WeatherCatV1.15B25,2013-04-21 11:41:00,
2013-04-21 07:46:00,38.6,22.1,30.49,NNE,29,0.0,3.0,51,0.00,,,0.00,WeatherCatV1.15B25,2013-04-21 11:46:00,
2013-04-21 07:51:00,38.9,21.4,30.50,NE,46,1.0,4.0,49,0.00,,,0.00,WeatherCatV1.15B25,2013-04-21 11:51:00,
2013-04-21 07:56:00,39.0,21.5,30.50,North,5,4.0,8.0,49,0.00,,,0.00,WeatherCatV1.15B25,2013-04-21 11:56:00,
2013-04-21 08:01:00,39.2,21.2,30.50,SE,129,3.0,3.0,48,0.00,,,0.00,WeatherCatV1.15B25,2013-04-21 12:01:00,
2013-04-21 08:06:00,39.5,21.5,30.50,WSW,243,1.0,4.0,48,0.00,,,0.00,WeatherCatV1.15B25,2013-04-21 12:06:00,
2013-04-21 08:11:00,39.9,21.8,30.50,NNE,27,4.0,6.0,48,0.00,,,0.00,WeatherCatV1.15B25,2013-04-21 12:11:00,
2013-04-21 08:16:00,40.0,21.4,30.51,NNE,13,0.0,2.0,47,0.00,,,0.00,WeatherCatV1.15B25,2013-04-21 12:16:00,
2013-04-21 08:21:00,40.3,20.7,30.51,WNW,291,3.0,8.0,45,0.00,,,0.00,WeatherCatV1.15B25,2013-04-21 12:21:00,
2013-04-21 08:26:00,40.1,20.5,30.51,SSW,204,1.0,9.0,45,0.00,,,0.00,WeatherCatV1.15B25,2013-04-21 12:26:00,
2013-04-21 08:31:00,40.2,20.0,30.51,NW,326,2.0,4.0,44,0.00,,,0.00,WeatherCatV1.15B25,2013-04-21 12:31:00,
2013-04-21 08:36:00,40.4,20.8,30.51,North,6,3.0,4.0,45,0.00,,,0.00,WeatherCatV1.15B25,2013-04-21 12:36:00,
2013-04-21 08:41:00,40.7,21.0,30.51,South,190,1.0,6.0,45,0.00,,,0.00,WeatherCatV1.15B25,2013-04-21 12:41:00,
2013-04-21 08:46:00,41.0,20.8,30.52,North,0,4.0,4.0,44,0.00,,,0.00,WeatherCatV1.15B25,2013-04-21 12:46:00,
2013-04-21 08:51:00,41.1,20.9,30.52,SSW,207,0.0,5.0,44,0.00,,,0.00,WeatherCatV1.15B25,2013-04-21 12:51:00,
2013-04-21 08:56:00,41.1,21.4,30.52,West,274,0.0,1.0,45,0.00,,,0.00,WeatherCatV1.15B25,2013-04-21 12:56:00,
2013-04-21 09:01:00,41.7,21.9,30.52,West,272,0.0,1.0,45,0.00,,,0.00,WeatherCatV1.15B25,2013-04-21 13:01:00,
2013-04-21 09:06:00,42.1,21.8,30.52,SSE,166,1.0,3.0,44,0.00,,,0.00,WeatherCatV1.15B25,2013-04-21 13:06:00,
2013-04-21 09:11:00,42.1,21.2,30.52,NNW,342,3.0,6.0,43,0.00,,,0.00,WeatherCatV1.15B25,2013-04-21 13:11:00,
2013-04-21 09:16:00,42.0,21.1,30.52,North,351,2.0,2.0,43,0.00,,,0.00,WeatherCatV1.15B25,2013-04-21 13:16:00,
2013-04-21 09:21:00,42.1,21.8,30.53,SW,215,1.0,7.0,44,0.00,,,0.00,WeatherCatV1.15B25,2013-04-21 13:21:00,
2013-04-21 09:26:00,42.2,21.3,30.53,SSE,162,1.0,3.0,43,0.00,,,0.00,WeatherCatV1.15B25,2013-04-21 13:26:00,
2013-04-21 09:31:00,42.1,21.2,30.52,SW,219,4.0,6.0,43,0.00,,,0.00,WeatherCatV1.15B25,2013-04-21 13:31:00,
2013-04-21 09:36:00,42.1,20.7,30.52,SW,215,2.0,3.0,42,0.00,,,0.00,WeatherCatV1.15B25,2013-04-21 13:36:00,
2013-04-21 09:41:00,42.5,21.0,30.53,NNW,337,5.0,6.0,42,0.00,,,0.00,WeatherCatV1.15B25,2013-04-21 13:41:00,
2013-04-21 09:46:00,42.7,21.2,30.53,SW,224,1.0,8.0,42,0.00,,,0.00,WeatherCatV1.15B25,2013-04-21 13:46:00,
2013-04-21 09:51:00,43.0,21.5,30.53,South,181,4.0,6.0,42,0.00,,,0.00,WeatherCatV1.15B25,2013-04-21 13:51:00,
2013-04-21 09:56:00,42.9,21.4,30.53,SW,214,1.0,1.0,42,0.00,,,0.00,WeatherCatV1.15B25,2013-04-21 13:56:00,
2013-04-21 10:01:00,43.6,22.0,30.54,North,353,4.0,4.0,42,0.00,,,0.00,WeatherCatV1.15B25,2013-04-21 14:01:00,
2013-04-21 10:06:00,44.2,22.6,30.54,SSW,200,0.0,2.0,42,0.00,,,0.00,WeatherCatV1.15B25,2013-04-21 14:06:00,
2013-04-21 10:11:00,44.8,23.1,30.54,North,356,2.0,3.0,42,0.00,,,0.00,WeatherCatV1.15B25,2013-04-21 14:11:00,
2013-04-21 10:16:00,44.7,21.9,30.54,NNE,13,1.0,4.0,40,0.00,,,0.00,WeatherCatV1.15B25,2013-04-21 14:16:00,
2013-04-21 10:21:00,44.8,22.0,30.54,SSW,204,2.0,3.0,40,0.00,,,0.00,WeatherCatV1.15B25,2013-04-21 14:21:00,
2013-04-21 10:26:00,45.5,23.2,30.55,North,0,2.0,3.0,41,0.00,,,0.00,WeatherCatV1.15B25,2013-04-21 14:26:00,
2013-04-21 10:31:00,45.6,21.5,30.54,NE,43,2.0,5.0,38,0.00,,,0.00,WeatherCatV1.15B25,2013-04-21 14:31:00,
2013-04-21 10:36:00,45.2,21.7,30.54,North,349,4.0,7.0,39,0.00,,,0.00,WeatherCatV1.15B25,2013-04-21 14:36:00,
2013-04-21 10:41:00,45.4,22.5,30.55,SE,136,1.0,7.0,40,0.00,,,0.00,WeatherCatV1.15B25,2013-04-21 14:41:00,
2013-04-21 10:46:00,45.9,22.4,30.54,NNE,23,0.0,1.0,39,0.00,,,0.00,WeatherCatV1.15B25,2013-04-21 14:46:00,
2013-04-21 10:51:00,46.0,22.4,30.55,ESE,108,1.0,4.0,39,0.00,,,0.00,WeatherCatV1.15B25,2013-04-21 14:51:00,
2013-04-21 10:56:00,46.4,22.2,30.55,NNW,329,1.0,8.0,38,0.00,,,0.00,WeatherCatV1.15B25,2013-04-21 14:56:00,
2013-04-21 11:01:00,46.2,22.0,30.55,SSE,166,0.0,3.0,38,0.00,,,0.00,WeatherCatV1.15B25,2013-04-21 15:01:00,
2013-04-21 11:06:00,46.4,22.8,30.55,NNE,18,3.0,3.0,39,0.00,,,0.00,WeatherCatV1.15B25,2013-04-21 15:06:00,
2013-04-21 11:11:00,46.3,22.7,30.55,WNW,302,1.0,2.0,39,0.00,,,0.00,WeatherCatV1.15B25,2013-04-21 15:11:00,
2013-04-21 11:16:00,46.9,23.3,30.55,NNE,19,3.0,3.0,39,0.00,,,0.00,WeatherCatV1.15B25,2013-04-21 15:16:00,
2013-04-21 11:21:00,47.6,23.9,30.55,ENE,78,1.0,5.0,39,0.00,,,0.00,WeatherCatV1.15B25,2013-04-21 15:21:00,
2013-04-21 11:26:00,47.8,24.1,30.56,NNW,346,1.0,3.0,39,0.00,,,0.00,WeatherCatV1.15B25,2013-04-21 15:26:00,
2013-04-21 11:31:00,47.6,22.6,30.56,NNE,16,2.0,6.0,37,0.00,,,0.00,WeatherCatV1.15B25,2013-04-21 15:31:00,
2013-04-21 11:36:00,47.4,22.5,30.56,NNW,341,0.0,6.0,37,0.00,,,0.00,WeatherCatV1.15B25,2013-04-21 15:36:00,
2013-04-21 11:41:00,48.1,22.4,30.56,NNE,30,5.0,7.0,36,0.00,,,0.00,WeatherCatV1.15B25,2013-04-21 15:41:00,
2013-04-21 11:46:00,47.9,20.9,30.56,NNE,19,5.0,6.0,34,0.00,,,0.00,WeatherCatV1.15B25,2013-04-21 15:46:00,
2013-04-21 11:51:00,48.2,21.2,30.56,NW,318,1.0,3.0,34,0.00,,,0.00,WeatherCatV1.15B25,2013-04-21 15:51:00,
2013-04-21 11:56:00,48.2,19.7,30.56,NNW,330,2.0,7.0,32,0.00,,,0.00,WeatherCatV1.15B25,2013-04-21 15:56:00,
2013-04-21 12:01:00,48.5,22.1,30.56,SSW,204,1.0,4.0,35,0.00,,,0.00,WeatherCatV1.15B25,2013-04-21 16:01:00,
2013-04-21 12:06:00,48.9,23.8,30.56,WNW,293,1.0,5.0,37,0.00,,,0.00,WeatherCatV1.15B25,2013-04-21 16:06:00,
2013-04-21 12:11:00,49.6,23.8,30.56,SE,133,0.0,5.0,36,0.00,,,0.00,WeatherCatV1.15B25,2013-04-21 16:11:00,
2013-04-21 12:16:00,50.1,21.4,30.56,NNE,15,4.0,9.0,32,0.00,,,0.00,WeatherCatV1.15B25,2013-04-21 16:16:00,
2013-04-21 12:21:00,49.1,20.5,30.56,East,83,3.0,5.0,32,0.00,,,0.00,WeatherCatV1.15B25,2013-04-21 16:21:00,
2013-04-21 12:26:00,49.2,22.7,30.56,SSE,167,0.0,2.0,35,0.00,,,0.00,WeatherCatV1.15B25,2013-04-21 16:26:00,
2013-04-21 12:31:00,50.0,20.6,30.56,SSW,200,2.0,4.0,31,0.00,,,0.00,WeatherCatV1.15B25,2013-04-21 16:31:00,
2013-04-21 12:36:00,49.0,21.2,30.56,ESE,122,0.0,4.0,33,0.00,,,0.00,WeatherCatV1.15B25,2013-04-21 16:36:00,
2013-04-21 12:41:00,49.6,21.7,30.56,SSW,211,0.0,4.0,33,0.00,,,0.00,WeatherCatV1.15B25,2013-04-21 16:41:00,
2013-04-21 12:46:00,50.1,21.4,30.56,SW,236,0.0,1.0,32,0.00,,,0.00,WeatherCatV1.15B25,2013-04-21 16:46:00,
2013-04-21 12:51:00,50.8,21.3,30.56,NW,313,3.0,6.0,31,0.00,,,0.00,WeatherCatV1.15B25,2013-04-21 16:51:00,
2013-04-21 12:56:00,50.6,21.8,30.56,North,356,2.0,6.0,32,0.00,,,0.00,WeatherCatV1.15B25,2013-04-21 16:56:00,
2013-04-21 13:01:00,50.5,21.8,30.56,WNW,292,4.0,4.0,32,0.00,,,0.00,WeatherCatV1.15B25,2013-04-21 17:01:00,
2013-04-21 13:06:00,50.9,20.6,30.56,SE,137,1.0,4.0,30,0.00,,,0.00,WeatherCatV1.15B25,2013-04-21 17:06:00,
2013-04-21 13:11:00,50.4,21.7,30.56,WSW,238,0.0,1.0,32,0.00,,,0.00,WeatherCatV1.15B25,2013-04-21 17:11:00,
2013-04-21 13:17:00,50.8,20.5,30.56,WSW,245,4.0,5.0,30,0.00,,,0.00,WeatherCatV1.15B25,2013-04-21 17:17:00,
2013-04-21 13:22:00,50.7,20.4,30.56,NNE,23,1.0,3.0,30,0.00,,,0.00,WeatherCatV1.15B25,2013-04-21 17:22:00,
2013-04-21 13:27:00,51.3,21.7,30.56,SW,235,2.0,6.0,31,0.00,,,0.00,WeatherCatV1.15B25,2013-04-21 17:27:00,
2013-04-21 13:32:00,51.0,20.7,30.55,SW,229,1.0,4.0,30,0.00,,,0.00,WeatherCatV1.15B25,2013-04-21 17:32:00,
2013-04-21 13:37:00,51.2,20.8,30.55,SSE,150,2.0,4.0,30,0.00,,,0.00,WeatherCatV1.15B25,2013-04-21 17:37:00,
2013-04-21 13:42:00,51.6,22.7,30.55,SSW,207,2.0,3.0,32,0.00,,,0.00,WeatherCatV1.15B25,2013-04-21 17:42:00,
2013-04-21 13:47:00,52.2,21.7,30.55,SSW,210,0.0,5.0,30,0.00,,,0.00,WeatherCatV1.15B25,2013-04-21 17:47:00,
2013-04-21 13:52:00,52.2,21.7,30.55,SW,216,0.0,5.0,30,0.00,,,0.00,WeatherCatV1.15B25,2013-04-21 17:52:00,
2013-04-21 13:57:00,52.9,21.5,30.55,South,179,1.0,2.0,29,0.00,,,0.00,WeatherCatV1.15B25,2013-04-21 17:57:00,
2013-04-21 14:02:00,52.7,22.9,30.55,NNE,18,5.0,8.0,31,0.00,,,0.00,WeatherCatV1.15B25,2013-04-21 18:02:00,
2013-04-21 14:07:00,52.8,25.2,30.55,South,184,4.0,4.0,34,0.00,,,0.00,WeatherCatV1.15B25,2013-04-21 18:07:00,
2013-04-21 14:12:00,53.1,21.7,30.56,North,354,4.0,4.0,29,0.00,,,0.00,WeatherCatV1.15B25,2013-04-21 18:12:00,
2013-04-21 14:17:00,53.0,21.6,30.56,South,174,2.0,5.0,29,0.00,,,0.00,WeatherCatV1.15B25,2013-04-21 18:17:00,
2013-04-21 14:22:00,52.8,22.2,30.56,SW,228,3.0,4.0,30,0.00,,,0.00,WeatherCatV1.15B25,2013-04-21 18:22:00,
2013-04-21 14:27:00,52.4,19.4,30.55,NNE,23,3.0,7.0,27,0.00,,,0.00,WeatherCatV1.15B25,2013-04-21 18:27:00,
2013-04-21 14:32:00,52.4,21.9,30.55,SSE,166,1.0,3.0,30,0.00,,,0.00,WeatherCatV1.15B25,2013-04-21 18:32:00,
2013-04-21 14:37:00,53.0,21.6,30.56,North,350,4.0,5.0,29,0.00,,,0.00,WeatherCatV1.15B25,2013-04-21 18:37:00,
2013-04-21 14:42:00,53.0,22.4,30.55,West,261,3.0,7.0,30,0.00,,,0.00,WeatherCatV1.15B25,2013-04-21 18:42:00,
2013-04-21 14:47:00,53.6,22.1,30.55,East,84,7.0,9.0,29,0.00,,,0.00,WeatherCatV1.15B25,2013-04-21 18:47:00,
2013-04-21 14:52:00,53.7,22.2,30.55,NNW,348,2.0,2.0,29,0.00,,,0.00,WeatherCatV1.15B25,2013-04-21 18:52:00,
2013-04-21 14:57:00,53.4,24.3,30.55,SW,215,1.0,5.0,32,0.00,,,0.00,WeatherCatV1.15B25,2013-04-21 18:57:00,
2013-04-21 15:02:00,53.2,21.0,30.55,North,11,0.0,3.0,28,0.00,,,0.00,WeatherCatV1.15B25,2013-04-21 19:02:00,
2013-04-21 15:07:00,54.0,21.6,30.55,SSW,193,1.0,5.0,28,0.00,,,0.00,WeatherCatV1.15B25,2013-04-21 19:07:00,
2013-04-21 15:12:00,54.2,20.1,30.55,SSW,198,1.0,2.0,26,0.00,,,0.00,WeatherCatV1.15B25,2013-04-21 19:12:00,
2013-04-21 15:17:00,54.8,23.2,30.55,North,11,1.0,9.0,29,0.00,,,0.00,WeatherCatV1.15B25,2013-04-21 19:17:00,
2013-04-21 15:22:00,54.8,21.5,30.56,SSW,206,3.0,6.0,27,0.00,,,0.00,WeatherCatV1.15B25,2013-04-21 19:22:00,
2013-04-21 15:27:00,54.5,22.1,30.55,NNE,20,1.0,2.0,28,0.00,,,0.00,WeatherCatV1.15B25,2013-04-21 19:27:00,
2013-04-21 15:32:00,54.4,21.1,30.55,North,7,1.0,6.0,27,0.00,,,0.00,WeatherCatV1.15B25,2013-04-21 19:32:00,
2013-04-21 15:37:00,54.3,21.0,30.56,NNW,335,0.0,5.0,27,0.00,,,0.00,WeatherCatV1.15B25,2013-04-21 19:37:00,
2013-04-21 15:42:00,54.6,22.2,30.55,NNW,335,1.0,3.0,28,0.00,,,0.00,WeatherCatV1.15B25,2013-04-21 19:42:00,
2013-04-21 15:47:00,55.8,22.3,30.56,WSW,258,0.0,3.0,27,0.00,,,0.00,WeatherCatV1.15B25,2013-04-21 19:47:00,
2013-04-21 15:52:00,55.5,22.1,30.55,NNE,16,2.0,2.0,27,0.00,,,0.00,WeatherCatV1.15B25,2013-04-21 19:52:00,
2013-04-21 15:57:00,55.7,23.1,30.56,West,259,1.0,4.0,28,0.00,,,0.00,WeatherCatV1.15B25,2013-04-21 19:57:00,
2013-04-21 16:02:00,56.3,22.8,30.56,SW,224,4.0,4.0,27,0.00,,,0.00,WeatherCatV1.15B25,2013-04-21 20:02:00,
2013-04-21 16:07:00,56.6,22.1,30.55,North,358,2.0,4.0,26,0.00,,,0.00,WeatherCatV1.15B25,2013-04-21 20:07:00,
2013-04-21 16:12:00,56.4,21.0,30.56,SSW,204,0.0,1.0,25,0.00,,,0.00,WeatherCatV1.15B25,2013-04-21 20:12:00,
2013-04-21 16:17:00,56.5,22.9,30.56,NE,56,1.0,3.0,27,0.00,,,0.00,WeatherCatV1.15B25,2013-04-21 20:17:00,
2013-04-21 16:22:00,56.0,28.0,30.56,SSE,168,3.0,6.0,34,0.00,,,0.00,WeatherCatV1.15B25,2013-04-21 20:22:00,
2013-04-21 16:27:00,55.5,28.3,30.56,SSE,160,2.0,2.0,35,0.00,,,0.00,WeatherCatV1.15B25,2013-04-21 20:27:00,
2013-04-21 16:32:00,55.5,28.3,30.56,NNE,27,1.0,6.0,35,0.00,,,0.00,WeatherCatV1.15B25,2013-04-21 20:32:00,
2013-04-21 16:37:00,54.7,28.3,30.56,NW,307,0.0,7.0,36,0.00,,,0.00,WeatherCatV1.15B25,2013-04-21 20:37:00,
2013-04-21 16:42:00,54.6,27.5,30.56,WSW,253,1.0,2.0,35,0.00,,,0.00,WeatherCatV1.15B25,2013-04-21 20:42:00,
2013-04-21 16:47:00,53.9,26.9,30.56,SSW,194,0.0,3.0,35,0.00,,,0.00,WeatherCatV1.15B25,2013-04-21 20:47:00,
2013-04-21 16:52:00,53.9,28.2,30.57,SW,231,3.0,6.0,37,0.00,,,0.00,WeatherCatV1.15B25,2013-04-21 20:52:00,
2013-04-21 16:57:00,53.6,28.6,30.57,SSW,198,1.0,4.0,38,0.00,,,0.00,WeatherCatV1.15B25,2013-04-21 20:57:00,
2013-04-21 17:02:00,53.7,28.7,30.57,SW,214,1.0,2.0,38,0.00,,,0.00,WeatherCatV1.15B25,2013-04-21 21:02:00,
2013-04-21 17:07:00,53.4,29.1,30.58,NNE,20,2.0,2.0,39,0.00,,,0.00,WeatherCatV1.15B25,2013-04-21 21:07:00,
2013-04-21 17:12:00,53.0,28.7,30.58,ESE,110,2.0,4.0,39,0.00,,,0.00,WeatherCatV1.15B25,2013-04-21 21:12:00,
2013-04-21 17:17:00,52.7,28.4,30.58,SSW,198,0.0,3.0,39,0.00,,,0.00,WeatherCatV1.15B25,2013-04-21 21:17:00,
2013-04-21 17:22:00,52.2,28.0,30.58,West,263,0.0,7.0,39,0.00,,,0.00,WeatherCatV1.15B25,2013-04-21 21:22:00,
2013-04-21 17:27:00,51.8,27.6,30.58,SW,222,0.0,4.0,39,0.00,,,0.00,WeatherCatV1.15B25,2013-04-21 21:27:00,
2013-04-21 17:32:00,51.6,26.8,30.58,NNE,23,1.0,7.0,38,0.00,,,0.00,WeatherCatV1.15B25,2013-04-21 21:32:00,
2013-04-21 17:37:00,50.8,26.1,30.58,WSW,253,3.0,6.0,38,0.00,,,0.00,WeatherCatV1.15B25,2013-04-21 21:37:00,
2013-04-21 17:42:00,50.1,26.7,30.58,SSE,160,6.0,6.0,40,0.00,,,0.00,WeatherCatV1.15B25,2013-04-21 21:42:00,
2013-04-21 17:47:00,49.3,26.0,30.59,SSE,162,0.0,2.0,40,0.00,,,0.00,WeatherCatV1.15B25,2013-04-21 21:47:00,
2013-04-21 17:52:00,48.8,26.2,30.59,North,9,2.0,3.0,41,0.00,,,0.00,WeatherCatV1.15B25,2013-04-21 21:52:00,
2013-04-21 17:57:00,48.5,27.0,30.59,South,174,0.0,3.0,43,0.00,,,0.00,WeatherCatV1.15B25,2013-04-21 21:57:00,
2013-04-21 18:02:00,48.1,26.7,30.59,SSW,196,1.0,4.0,43,0.00,,,0.00,WeatherCatV1.15B25,2013-04-21 22:02:00,
2013-04-21 18:07:00,47.5,25.6,30.59,WSW,247,0.0,1.0,42,0.00,,,0.00,WeatherCatV1.15B25,2013-04-21 22:07:00,
2013-04-21 18:12:00,47.2,25.9,30.60,NW,326,1.0,2.0,43,0.00,,,0.00,WeatherCatV1.15B25,2013-04-21 22:12:00,
2013-04-21 18:17:00,46.8,26.0,30.60,NNW,340,0.0,4.0,44,0.00,,,0.00,WeatherCatV1.15B25,2013-04-21 22:17:00,
2013-04-21 18:22:00,46.5,25.8,30.60,North,9,4.0,4.0,44,0.00,,,0.00,WeatherCatV1.15B25,2013-04-21 22:22:00,
2013-04-21 18:27:00,46.2,25.5,30.60,SE,124,2.0,4.0,44,0.00,,,0.00,WeatherCatV1.15B25,2013-04-21 22:27:00,
2013-04-21 18:32:00,45.9,25.8,30.60,SE,146,0.0,1.0,45,0.00,,,0.00,WeatherCatV1.15B25,2013-04-21 22:32:00,
2013-04-21 18:37:00,45.7,25.6,30.60,West,275,0.0,1.0,45,0.00,,,0.00,WeatherCatV1.15B25,2013-04-21 22:37:00,
2013-04-21 18:42:00,45.5,25.9,30.60,WNW,288,1.0,1.0,46,0.00,,,0.00,WeatherCatV1.15B25,2013-04-21 22:42:00,
2013-04-21 18:47:00,45.3,26.3,30.60,WNW,301,0.0,2.0,47,0.00,,,0.00,WeatherCatV1.15B25,2013-04-21 22:47:00,
2013-04-21 18:52:00,45.1,26.6,30.61,SSW,203,1.0,2.0,48,0.00,,,0.00,WeatherCatV1.15B25,2013-04-21 22:52:00,
2013-04-21 18:57:00,44.9,26.4,30.61,South,187,2.0,2.0,48,0.00,,,0.00,WeatherCatV1.15B25,2013-04-21 22:57:00,
2013-04-21 19:02:00,44.7,26.2,30.61,West,271,0.0,2.0,48,0.00,,,0.00,WeatherCatV1.15B25,2013-04-21 23:02:00,
2013-04-21 19:07:00,44.6,26.6,30.61,NNW,333,0.0,1.0,49,0.00,,,0.00,WeatherCatV1.15B25,2013-04-21 23:07:00,
2013-04-21 19:12:00,44.5,26.5,30.62,SW,214,0.0,1.0,49,0.00,,,0.00,WeatherCatV1.15B25,2013-04-21 23:12:00,
2013-04-21 19:17:00,44.3,26.4,30.62,ENE,67,0.0,2.0,49,0.00,,,0.00,WeatherCatV1.15B25,2013-04-21 23:17:00,
2013-04-21 19:22:00,44.1,27.1,30.62,WNW,283,0.0,1.0,51,0.00,,,0.00,WeatherCatV1.15B25,2013-04-21 23:22:00,
2013-04-21 19:27:00,43.9,27.0,30.62,WNW,284,0.0,0.0,51,0.00,,,0.00,WeatherCatV1.15B25,2013-04-21 23:27:00,
2013-04-21 19:32:00,43.8,26.4,30.62,SW,222,0.0,1.0,50,0.00,,,0.00,WeatherCatV1.15B25,2013-04-21 23:32:00,
2013-04-21 19:37:00,43.6,26.7,30.63,SW,222,0.0,1.0,51,0.00,,,0.00,WeatherCatV1.15B25,2013-04-21 23:37:00,
2013-04-21 19:42:00,43.6,27.1,30.63,ENE,78,0.0,3.0,52,0.00,,,0.00,WeatherCatV1.15B25,2013-04-21 23:42:00,
2013-04-21 19:47:00,43.4,28.3,30.63,South,191,0.0,0.0,55,0.00,,,0.00,WeatherCatV1.15B25,2013-04-21 23:47:00,
2013-04-21 19:52:00,43.1,28.0,30.64,SSW,207,0.0,0.0,55,0.00,,,0.00,WeatherCatV1.15B25,2013-04-21 23:52:00,
2013-04-21 19:57:00,42.9,28.7,30.64,SSW,210,0.0,2.0,57,0.00,,,0.00,WeatherCatV1.15B25,2013-04-21 23:57:00,
2013-04-21 20:02:00,42.8,28.6,30.64,SSE,156,0.0,0.0,57,0.00,,,0.00,WeatherCatV1.15B25,2013-04-22 00:02:00,
2013-04-21 20:07:00,42.6,28.9,30.64,South,186,0.0,0.0,58,0.00,,,0.00,WeatherCatV1.15B25,2013-04-22 00:07:00,
2013-04-21 20:12:00,42.4,28.7,30.65,SSW,197,0.0,1.0,58,0.00,,,0.00,WeatherCatV1.15B25,2013-04-22 00:12:00,
2013-04-21 20:17:00,42.3,28.6,30.65,SSW,207,0.0,0.0,58,0.00,,,0.00,WeatherCatV1.15B25,2013-04-22 00:17:00,
2013-04-21 20:22:00,42.1,28.8,30.65,SSW,207,0.0,0.0,59,0.00,,,0.00,WeatherCatV1.15B25,2013-04-22 00:22:00,
2013-04-21 20:27:00,41.9,29.0,30.65,SSW,207,0.0,1.0,60,0.00,,,0.00,WeatherCatV1.15B25,2013-04-22 00:27:00,
2013-04-21 20:32:00,41.8,29.4,30.66,WSW,250,0.0,1.0,61,0.00,,,0.00,WeatherCatV1.15B25,2013-04-22 00:32:00,
2013-04-21 20:37:00,41.7,29.3,30.66,NW,319,0.0,1.0,61,0.00,,,0.00,WeatherCatV1.15B25,2013-04-22 00:37:00,
2013-04-21 20:42:00,41.6,29.6,30.66,South,191,0.0,1.0,62,0.00,,,0.00,WeatherCatV1.15B25,2013-04-22 00:42:00,
2013-04-21 20:47:00,41.6,30.0,30.66,SSE,168,0.0,0.0,63,0.00,,,0.00,WeatherCatV1.15B25,2013-04-22 00:47:00,
2013-04-21 20:52:00,41.4,30.1,30.67,South,174,0.0,0.0,64,0.00,,,0.00,WeatherCatV1.15B25,2013-04-22 00:52:00,
2013-04-21 20:57:00,41.4,30.5,30.67,West,271,0.0,1.0,65,0.00,,,0.00,WeatherCatV1.15B25,2013-04-22 00:57:00,
2013-04-21 21:02:00,41.3,30.8,30.67,SW,228,0.0,2.0,66,0.00,,,0.00,WeatherCatV1.15B25,2013-04-22 01:02:00,
2013-04-21 21:07:00,41.3,31.2,30.67,SW,232,0.0,0.0,67,0.00,,,0.00,WeatherCatV1.15B25,2013-04-22 01:07:00,
2013-04-21 21:12:00,41.2,31.5,30.67,South,178,2.0,2.0,68,0.00,,,0.00,WeatherCatV1.15B25,2013-04-22 01:12:00,
2013-04-21 21:17:00,41.1,31.7,30.67,SW,217,1.0,1.0,69,0.00,,,0.00,WeatherCatV1.15B25,2013-04-22 01:17:00,
2013-04-21 21:22:00,41.1,31.7,30.67,WNW,293,0.0,0.0,69,0.00,,,0.00,WeatherCatV1.15B25,2013-04-22 01:22:00,
2013-04-21 21:27:00,41.1,31.7,30.68,SSW,198,0.0,0.0,69,0.00,,,0.00,WeatherCatV1.15B25,2013-04-22 01:27:00,
2013-04-21 21:32:00,41.0,31.6,30.68,SW,214,2.0,2.0,69,0.00,,,0.00,WeatherCatV1.15B25,2013-04-22 01:32:00,
2013-04-21 21:37:00,41.1,31.7,30.68,SSW,211,3.0,3.0,69,0.00,,,0.00,WeatherCatV1.15B25,2013-04-22 01:37:00,
2013-04-21 21:42:00,41.1,31.7,30.68,SW,214,0.0,1.0,69,0.00,,,0.00,WeatherCatV1.15B25,2013-04-22 01:42:00,
2013-04-21 21:47:00,41.0,32.0,30.68,SW,228,0.0,1.0,70,0.00,,,0.00,WeatherCatV1.15B25,2013-04-22 01:47:00,
2013-04-21 21:52:00,40.9,31.5,30.68,SSE,149,0.0,0.0,69,0.00,,,0.00,WeatherCatV1.15B25,2013-04-22 01:52:00,
2013-04-21 21:54:00,40.9,31.5,30.68,SSE,168,0.0,1.0,69,0.00,,,0.00,WeatherCatV1.15B25,2013-04-22 01:54:00,
2013-04-21 21:59:00,40.9,31.5,30.68,SSE,162,0.0,1.0,69,0.00,,,0.00,WeatherCatV1.15B25,2013-04-22 01:59:00,
2013-04-21 22:04:00,41.0,30.9,30.69,SSE,153,0.0,2.0,67,0.00,,,0.00,WeatherCatV1.15B25,2013-04-22 02:04:00,
2013-04-21 22:09:00,41.0,30.5,30.69,SSW,205,0.0,1.0,66,0.00,,,0.00,WeatherCatV1.15B25,2013-04-22 02:09:00,
2013-04-21 22:14:00,41.0,30.1,30.69,SSE,163,0.0,2.0,65,0.00,,,0.00,WeatherCatV1.15B25,2013-04-22 02:14:00,
2013-04-21 22:19:00,41.0,29.8,30.69,SSE,159,1.0,1.0,64,0.00,,,0.00,WeatherCatV1.15B25,2013-04-22 02:19:00,
2013-04-21 22:24:00,40.8,29.6,30.69,SE,139,0.0,1.0,64,0.00,,,0.00,WeatherCatV1.15B25,2013-04-22 02:24:00,
2013-04-21 22:29:00,40.7,28.7,30.69,SSE,157,1.0,2.0,62,0.00,,,0.00,WeatherCatV1.15B25,2013-04-22 02:29:00,
2013-04-21 22:34:00,40.7,28.3,30.69,SSE,159,0.0,0.0,61,0.00,,,0.00,WeatherCatV1.15B25,2013-04-22 02:34:00,
2013-04-21 22:39:00,40.5,28.1,30.69,SSE,159,0.0,0.0,61,0.00,,,0.00,WeatherCatV1.15B25,2013-04-22 02:39:00,
2013-04-21 22:44:00,40.3,27.5,30.70,SSE,159,0.0,0.0,60,0.00,,,0.00,WeatherCatV1.15B25,2013-04-22 02:44:00,
2013-04-21 22:49:00,40.0,27.3,30.70,SSE,159,0.0,0.0,60,0.00,,,0.00,WeatherCatV1.15B25,2013-04-22 02:49:00,
2013-04-21 22:54:00,39.9,27.6,30.70,SSE,159,0.0,0.0,61,0.00,,,0.00,WeatherCatV1.15B25,2013-04-22 02:54:00,
2013-04-21 22:59:00,39.7,27.4,30.70,SSE,159,0.0,0.0,61,0.00,,,0.00,WeatherCatV1.15B25,2013-04-22 02:59:00,
2013-04-21 23:04:00,39.5,27.6,30.70,SSE,159,0.0,0.0,62,0.00,,,0.00,WeatherCatV1.15B25,2013-04-22 03:04:00,
2013-04-21 23:09:00,39.3,27.8,30.70,SSE,159,0.0,0.0,63,0.00,,,0.00,WeatherCatV1.15B25,2013-04-22 03:09:00,
2013-04-21 23:14:00,39.0,27.9,30.69,SSE,159,0.0,0.0,64,0.00,,,0.00,WeatherCatV1.15B25,2013-04-22 03:14:00,
2013-04-21 23:19:00,38.6,27.9,30.70,SSE,159,0.0,0.0,65,0.00,,,0.00,WeatherCatV1.15B25,2013-04-22 03:19:00,
2013-04-21 23:24:00,38.1,28.1,30.70,SSE,159,0.0,0.0,67,0.00,,,0.00,WeatherCatV1.15B25,2013-04-22 03:24:00,
2013-04-21 23:29:00,37.6,28.0,30.70,SSE,159,0.0,0.0,68,0.00,,,0.00,WeatherCatV1.15B25,2013-04-22 03:29:00,
2013-04-21 23:34:00,37.2,28.0,30.70,SSE,159,0.0,0.0,69,0.00,,,0.00,WeatherCatV1.15B25,2013-04-22 03:34:00,
2013-04-21 23:39:00,36.8,27.9,30.70,SSE,160,0.0,0.0,70,0.00,,,0.00,WeatherCatV1.15B25,2013-04-22 03:39:00,
2013-04-21 23:44:00,36.4,27.9,30.70,SSE,159,0.0,0.0,71,0.00,,,0.00,WeatherCatV1.15B25,2013-04-22 03:44:00,
2013-04-21 23:49:00,36.1,28.0,30.70,SSE,159,0.0,0.0,72,0.00,,,0.00,WeatherCatV1.15B25,2013-04-22 03:49:00,
2013-04-21 23:54:00,35.7,27.9,30.70,SSE,159,0.0,0.0,73,0.00,,,0.00,WeatherCatV1.15B25,2013-04-22 03:54:00,
2013-04-21 23:59:00,35.3,27.5,30.70,SSE,159,0.0,0.0,73,0.00,,,0.00,WeatherCatV1.15B25,2013-04-22 03:59:00,